Location: Bartlett
(35.2045°N, 89.8740°W)
Time: 17:13:47
(UTC+00:00)

Transit 4A - Pass Details

Date: 22 December 2025
Orbit: 867 x 974 km, 66.8° (Epoch: 14 January)

Event Time Altitude Azimuth Distance (km) Brightness Sun altitude
Rises 23:34:50 0° 240° (WSW) 3,441 13.1 -8.8°
Reaches altitude 10° 23:37:45 10° 253° (WSW) 2,505 11.8 -9.3°
Maximum altitude 23:42:25 25° 308° (NW) 1,689 9.7 -10.2°
Drops below altitude 10° 23:47:08 10° 2° (N) 2,530 10.0 -11.1°
Sets 23:50:07 0° 16° (NNE) 3,484 10.6 -11.7°
